Flag for Canada Weather past 2 weeks in Delta, British Columbia, Canada

Now
59 °F

Overcast.


Feels Like: 56 °F
Forecast: 55 / 63 °F
Wind: 14 mph from South

Location: Vancouver International Airport

Current Time: Sep 1, 2015 at 3:13:37 AM

Latest Report: Sep 1, 2015 at 2:49 AM


Visibility: 10 mi

Pressure: 29.81 "Hg

Humidity: 94%

Dew point: 57 °F

Location of DeltaLocation

Historic Weather in Delta — Graph

°F

Delta temperature yesterday

Maximum temperature yesterday: 61 °F (at 4:00 PM)
Minimum temperature yesterday: 57 °F (at 2:00 AM)
Average temperature yesterday: 59 °F

Past Weeks' High & Low Weather Summary

 TemperatureHumidityPressure
High75 °F (Aug 19, 5:00 PM)100% (Aug 28, 7:56 AM)30.16 "Hg (Aug 28, 7:56 AM)
Low54 °F (Aug 23, 4:00 AM)41% (Aug 24, 5:00 PM)29.40 "Hg (Aug 29, 12:00 PM)
Average64 °F74%29.93 "Hg
* Reported Aug 17 1:00 AM — Sep 1 1:54 AM, Delta, Weather by CustomWeather, © 2015

Note: Actual official high and low records may vary slightly from our data, if they occured in-between our weather recording intervals... More about our weather records

Advertising

Delta weather history for previous 24 hours

 ConditionsComfort  
Time TempWeatherWind HumidityBarometerVisibility
1:54 AM
Tue, Sep 1
59 °FSprinkles. Mostly cloudy.12 mph94%29.80 "Hg12 mi
1:00 AM59 °FPartly cloudy.16 mph94%29.79 "Hg12 mi
12:00 AM59 °FPartly cloudy.20 mph88%29.79 "Hg8 mi
11:00 PM
Mon, Aug 31
59 °FSprinkles. Overcast.17 mph88%29.78 "Hg8 mi
10:00 PM61 °FPassing clouds.20 mph83%29.78 "Hg12 mi
9:00 PM61 °FPassing clouds.15 mph77%29.78 "Hg12 mi
8:00 PM61 °FPartly sunny.15 mph83%29.79 "Hg12 mi
7:00 PM61 °FPartly sunny.13 mph88%29.80 "Hg15 mi
6:00 PM61 °FMostly cloudy.20 mph88%29.81 "Hg15 mi
5:00 PM61 °FCloudy.15 mph88%29.81 "Hg12 mi
4:00 PM61 °FMostly cloudy.20 mph88%29.82 "Hg8 mi
3:00 PM59 °FLight rain. Fog.21 mph94%29.83 "Hg6 mi
2:00 PM59 °FLight rain. Fog.20 mph94%29.84 "Hg4 mi
1:00 PM59 °FLight rain. Fog.16 mph94%29.84 "Hg5 mi
12:00 PM59 °FLight rain. Cloudy.16 mph94%29.85 "Hg8 mi
11:00 AM59 °FLight rain. Fog.16 mph94%29.86 "Hg2 mi
10:00 AM59 °FLight rain. Cloudy.16 mph94%29.85 "Hg7 mi
9:00 AM59 °FLight rain. Fog.18 mph88%29.85 "Hg4 mi
8:00 AM59 °FLight rain. Fog.18 mph88%29.83 "Hg5 mi
7:00 AM59 °FLight rain. Passing clouds.15 mph88%29.83 "Hg6 mi
6:00 AM57 °FLight rain. Mostly cloudy.23 mph94%29.83 "Hg10 mi
5:00 AM59 °FLight rain. Mostly cloudy.21 mph82%29.83 "Hg12 mi
4:00 AM59 °FLight rain. Mostly cloudy.13 mph88%29.84 "Hg10 mi
3:00 AM59 °FLight rain. Mostly cloudy.10 mph88%29.85 "Hg8 mi
Weather by CustomWeather, © 2015

See weather overviewHow to use our weather pages